SCP
0 0 -0 0 -0 -0 0 0 0 0 0 0 0 0 0 0 0 -0 0 0 -0 0 -0 0 0 0 0 0 0 0 0 0 0 0 0 0 -0 0 0 -0 0 0 0 0 0
0 0 0 0 -0 -0 -0 0 0 0 0 0 0 0 0 0 0 0 0 0 0 0 -0 0 0 0 0 0 0 0 0 0 0 0 0 0 0 0 0 -0 -0 0 0 0 0
0 0 0 0 0 -0 -0 0 0 0 0 0 0 0 0 0 0 0 0 0 0 -0 0 0 0 0 0 0 0 0 0 0 0 0 0 0 0 0 0 0 0 -0 0 0 0
0 0 0 0 0 -0 0 0 0 0 0 0 0 0 0 0 0 0 0 0 0 0 0 0 0 0 0 0 0 0 0 0 0 0 0 0 0 0 0 0 0 0 0 0 0
0 0 0 0 0 0 0 0 0 0 0 0 0 0 0 0 0 0 0 0 0 0 0 0 0 0 0 0 0 0 0 0 0 0 0 0 0 0 0 0 0 0 0 0 0
-0 -0 0 0 0 0 0 0 0 0 0 0 0 0 0 0 0 0 0 0 0 0 0 0 0 0 0 0 0 0 0 0 0 0 0 0 0 0 0 0 0 0 0 0 0
-0 -0 0 0 -0 0 0 0 0 0 0 0 0 0 0 0 0 0 0 0 0 0 0 0 0 0 0 0 0 0 0 0 0 0 0 0 0 0 0 0 0 0 0 0 0
0 0 0 0 0 0 0 0 0 0 0 0 0 0 0 0 0 0 0 0 0 0 0 0 0 0 0 0 0 0 0 0 0 0 0 0 0 0 0 0 0 0 0 0 0
0 0 0 0 0 0 0 0 0 0 0 0 0 0 0 0 0 0 0 0 0 0 0 0 0 0 0 0 0 0 0 0 0 0 0 0 0 0 0 0 0 0 0 0 0
0 0 0 0 0 0 0 0 0 0 0 0 0 0 0 0 0 0 0 0 0 0 0 0 0 0 0 0 0 0 0 0 0 0 0 0 0 0 0 0 0 0 0 0 0
0 0 0 0 0 0 0 0 0 0 0 0 0 0 0 0 0 0 0 0 0 0 0 0 0 0 0 0 0 0 0 0 0 0 0 0 0 0 0 0 0 0 0 0 0
0 0 0 0 0 0 0 0 0 0 0 -0 0 0 0 0 0 0 0 0 0 0 0 0 0 0 0 0 0 0 0 0 0 0 0 0 0 0 0 0 0 0 0 0 0
0 0 0 0 0 0 0 -0 0 0 0 0 0 0 0 0 0 0 0 0 0 0 0 0 0 0 0 0 0 0 0 0 0 0 0 0 0 0 0 0 0 0 0 0 0
0 0 0 0 0 0 -0 -0 0 0 0 0 0 0 0 0 0 0 0 0 0 0 0 0 0 0 0 0 0 0 0 0 0 0 0 0 0 0 0 0 0 0 0 0 0
0 0 0 0 0 0 0 0 0 0 0 0 0 0 0 0 0 0 0 0 0 0 0 0 0 0 0 0 0 0 0 0 0 0 0 0 0 0 0 0 0 0 0 0 0
0 0 0 0 0 0 0 0 0 0 0 0 0 0 0 0 0 0 0 0 0 0 0 0 0 0 0 0 0 0 0 0 0 0 0 0 0 0 0 0 0 0 0 0 0
0 0 0 0 0 0 0 0 0 0 0 0 0 0 0 0 0 0 0 0 0 0 0 0 0 0 0 0 0 0 0 0 0 0 0 0 0 0 0 0 0 0 0 0 0
0 0 0 0 0 0 0 0 0 0 0 0 0 0 0 0 0 0 0 0 0 0 0 0 0 0 0 0 0 0 0 0 0 0 0 0 0 0 0 0 0 0 0 0 0
0 0 0 0 0 0 0 0 0 0 0 0 0 0 0 0 0 0 0 0 0 0 0 0 0 0 0 0 0 0 0 0 0 0 0 0 0 0 0 0 0 0 0 0 0
0 0 0 0 0 0 0 0 0 0 0 0 0 0 0 0 0 0 0 0 0 0 0 0 0 0 0 0 0 0 0 0 0 0 0 0 0 0 0 0 0 0 0 0 0
0 0 0 0 0 0 0 0 0 0 0 0 0 0 0 0 0 0 0 0 0 0 0 0 0 0 0 0 0 0 0 0 0 0 0 0 0 0 0 0 0 0 0 0 0
0 0 0 0 0 0 0 0 0 0 0 0 0 0 0 0 0 0 0 0 0 0 0 0 0 0 0 0 0 0 0 0 0 0 0 0 0 0 0 0 0 0 0 0 0
0 0 0 0 0 0 0 0 0 0 0 0 0 0 0 0 0 0 0 0 0 0 0 0 0 0 0 0 0 0 0 0 0 0 0 0 0 0 0 0 0 0 0 0 0
0 0 0 0 0 0 0 0 0 0 0 0 0 0 0 0 0 0 0 0 0 0 0 0 0 0 0 0 0 0 0 0 0 0 0 0 0 0 0 0 0 0 0 0 0
0 0 0 0 0 0 0 0 0 0 0 0 0 0 0 0 0 0 0 0 0 0 0 0 0 0 0 0 0 0 0 0 0 0 0 0 0 0 0 0 0 0 0 0 0
0 0 0 0 0 0 0 0 0 0 0 0 0 0 0 0 0 0 0 0 0 0 0 0 0 0 0 0 0 0 0 0 0 0 0 0 0 0 0 0 0 0 0 0 0
0 0 0 0 0 0 0 0 0 0 0 0 0 0 0 0 0 0 0 0 0 0 0 0 0 0 0 0 0 0 0 0 0 0 0 0 0 0 0 0 0 0 0 0 0
Wind_Speed_500mb
26 26 17 22 22 17 17 18 13 15 16 12 9 8 8 8 9 12 10 8 9 10 11 9 7 3 6 5 5 4 9 11 12 10 4 8 9 8 12 19 15 14 20 21 30
33 29 26 25 22 18 18 18 16 16 17 13 10 8 8 9 11 17 13 12 9 9 10 6 6 4 4 5 3 6 7 7 5 8 7 11 13 16 12 19 23 17 13 21 24
27 35 27 31 27 22 19 16 18 17 19 13 10 9 8 9 9 13 21 16 11 10 8 7 5 4 4 4 5 3 8 3 8 16 15 15 15 7 13 13 3 20 23 16 21
27 35 33 29 25 22 20 16 19 20 20 15 11 11 9 7 10 16 23 23 14 11 8 6 5 2 3 5 5 11 12 11 6 6 7 11 9 15 19 14 22 13 18 25 23
33 37 34 24 23 25 20 17 18 21 20 16 13 11 8 10 13 9 19 28 20 14 9 5 3 3 2 3 5 14 9 7 14 18 18 18 21 17 13 7 14 12 13 13 14
43 33 30 26 22 23 21 21 18 22 21 16 15 12 9 15 14 11 14 27 24 18 10 4 5 5 3 5 9 3 11 21 16 18 13 9 4 4 4 11 8 13 17 17 15
41 33 29 27 25 25 24 22 20 23 21 18 17 13 15 19 13 18 22 24 19 17 11 7 5 5 8 4 3 7 16 13 8 1 3 6 10 12 7 9 12 18 21 24 27
36 33 30 29 19 22 20 22 21 24 23 20 17 13 15 18 23 20 27 23 19 15 10 7 6 7 4 5 3 7 8 7 7 3 3 4 5 14 8 10 11 15 20 25 33
35 32 34 31 17 27 29 27 26 26 25 21 16 13 12 18 26 31 26 22 20 14 11 9 9 5 7 7 8 7 8 8 4 3 2 6 11 3 9 8 11 12 16 22 32
38 37 36 28 25 32 31 29 26 25 23 17 17 9 28 19 29 32 31 27 19 18 10 5 4 9 8 11 8 3 9 6 12 4 8 17 25 11 13 15 21 17 16 22 32
36 36 32 30 30 36 32 25 14 13 32 25 16 15 2 20 24 26 33 33 20 14 14 5 12 17 11 12 6 5 8 17 10 3 6 7 17 13 1 31 28 20 20 24 31
36 34 32 33 33 38 42 36 36 8 13 51 42 34 6 21 11 23 34 24 19 20 13 9 21 12 3 9 12 10 11 20 11 5 7 7 13 5 18 21 22 23 23 25 29
38 36 35 37 38 46 50 53 18 20 11 13 49 35 25 25 14 29 37 19 15 18 21 22 4 13 10 13 16 15 17 13 13 3 6 11 7 15 11 14 14 15 18 22 26
42 40 41 43 39 46 51 45 21 10 9 13 16 16 31 26 14 20 33 15 8 20 14 15 5 12 12 14 18 18 7 11 9 7 7 5 1 19 23 20 18 20 22 23 24
45 44 46 49 21 46 33 32 28 12 10 11 9 9 21 28 17 13 41 16 18 17 12 6 13 12 10 4 19 5 10 4 7 11 9 11 9 19 24 26 27 28 27 25 23
47 47 50 54 29 33 27 34 27 8 13 8 8 13 19 11 7 11 14 10 9 10 5 8 1 6 2 7 5 21 7 4 4 7 10 6 7 17 24 36 33 33 30 29 26
49 51 55 51 32 30 36 45 10 11 5 10 8 12 23 14 10 12 22 21 18 13 25 13 21 6 6 9 10 10 7 6 8 9 3 5 7 8 21 14 36 40 38 32 27
52 53 55 51 31 35 55 14 14 7 9 5 6 15 16 16 8 9 18 21 16 12 5 18 11 18 11 13 3 19 8 9 8 5 2 3 10 3 6 7 13 32 36 31 27
52 53 54 52 38 47 40 20 15 9 9 17 7 9 12 8 7 12 18 15 19 27 14 13 7 4 3 4 1 11 12 4 2 1 6 3 7 10 7 9 21 29 30 27 25
56 50 53 54 39 47 21 17 7 4 8 6 13 11 20 21 15 20 21 10 10 28 10 8 7 1 6 5 11 5 10 5 6 7 7 6 10 10 17 20 26 29 30 25 21
52 25 36 51 39 26 23 18 9 11 9 11 13 9 8 13 17 15 12 5 9 14 16 10 4 7 6 15 16 9 8 3 5 6 7 8 7 10 22 33 36 37 29 26 25
44 11 41 60 25 17 24 17 9 9 12 6 5 4 13 17 16 15 14 6 12 25 17 9 2 9 5 5 5 4 7 18 11 10 3 7 13 7 16 40 45 39 30 29 27
34 11 46 67 19 14 5 11 8 9 10 10 10 6 5 13 8 10 8 3 14 13 12 15 7 8 6 5 4 9 10 8 1 2 21 12 9 2 12 31 33 34 33 35 28
29 9 13 31 17 27 21 15 17 14 6 7 5 7 6 5 3 10 9 4 9 8 4 14 7 12 14 5 7 10 16 22 22 14 19 28 31 12 19 32 36 32 33 34 28
25 13 21 18 22 16 32 22 23 21 9 11 4 11 13 9 7 6 5 6 4 8 6 8 12 10 13 5 6 11 15 26 30 36 25 38 37 30 24 33 49 38 34 35 27
19 11 13 15 41 21 20 21 31 25 18 14 11 22 16 15 15 16 13 8 9 9 11 5 9 7 7 3 13 19 26 28 35 37 38 41 49 38 34 23 32 39 34 33 24
34 25 22 20 29 27 25 24 18 19 21 15 25 14 11 24 21 2 5 6 6 11 19 12 12 10 14 1 9 19 40 40 31 26 25 30 35 4 10 17 27 36 37 30 23
Wind_Direction_500mb
271 280 262 246 239 238 242 255 247 242 213 225 233 253 265 268 260 223 227 195 164 146 129 128 130 118 95 100 91 100 241 245 248 231 230 181 256 268 275 268 262 250 273 283 292
252 258 256 252 249 245 239 251 250 229 217 222 237 253 268 273 259 226 199 186 158 140 139 145 136 116 129 126 124 240 249 258 270 242 243 278 274 298 274 268 276 276 278 293 290
244 251 253 240 233 234 237 247 257 223 220 223 239 254 267 281 270 222 202 189 168 150 146 133 108 108 136 173 173 168 260 219 246 246 279 289 284 258 285 280 324 307 301 297 295
242 245 243 231 237 236 236 238 253 227 217 223 238 253 262 249 219 198 195 192 180 168 152 133 115 120 194 216 174 246 251 249 287 249 274 277 290 283 268 283 321 320 301 303 297
247 235 240 242 225 233 241 239 244 230 222 225 234 250 256 244 251 201 200 194 190 181 172 169 152 137 246 203 209 242 275 248 263 269 263 270 275 269 278 328 330 334 337 330 323
243 241 238 228 242 244 236 238 238 231 223 232 236 236 242 240 230 219 185 186 184 186 192 194 177 205 229 220 230 270 267 278 276 266 239 257 234 286 146 352 33 45 35 22 11
245 236 224 236 221 230 241 235 227 229 222 232 243 240 235 234 222 204 183 182 186 189 204 216 237 203 161 201 240 285 292 294 213 109 255 229 211 203 99 17 65 51 45 42 47
241 236 223 224 223 255 256 257 232 214 222 231 236 243 246 238 224 203 193 194 193 198 204 203 185 175 212 144 203 262 260 243 143 335 117 272 230 154 109 27 77 66 55 50 50
232 227 224 220 210 246 241 242 228 215 220 226 235 216 249 223 215 210 199 202 195 190 179 173 166 160 173 229 248 201 273 259 251 87 296 244 287 162 212 343 129 95 70 64 63
222 218 218 209 206 238 225 219 213 222 221 222 222 214 242 215 208 210 207 203 181 176 144 175 163 224 203 209 266 227 241 243 266 123 280 271 262 281 282 198 152 126 93 77 70
215 210 214 207 202 216 214 188 191 231 211 199 201 214 292 194 187 193 197 183 163 179 212 157 229 232 245 230 291 242 263 269 268 11 289 262 294 324 287 159 145 133 116 95 82
209 209 205 205 202 199 195 195 198 200 224 225 236 227 215 177 170 184 179 182 189 209 154 198 242 276 243 191 189 211 260 270 273 188 285 288 312 71 143 135 139 141 129 113 103
207 202 198 202 198 200 200 199 199 229 263 219 224 228 218 206 221 193 180 180 191 191 202 235 76 125 168 165 189 206 239 266 285 254 237 277 201 165 159 147 141 145 141 126 118
201 201 197 196 199 199 209 199 211 203 261 204 197 211 208 202 234 198 185 174 167 216 187 243 130 211 224 238 232 260 230 234 234 255 270 273 265 193 179 175 181 166 159 145 131
200 198 198 196 194 197 205 193 197 193 261 122 154 176 167 185 137 184 187 197 192 170 192 148 175 186 204 220 191 67 111 176 257 253 282 189 238 135 183 197 188 183 169 159 145
204 194 195 194 194 190 186 172 164 209 245 152 137 160 155 163 142 126 168 161 131 149 239 264 245 213 187 107 162 132 126 152 204 244 240 121 252 176 188 205 188 183 180 171 164
199 198 195 194 204 179 170 153 175 228 88 172 178 170 175 160 149 174 172 186 191 190 225 213 228 179 197 194 133 180 220 249 214 209 308 114 226 313 189 199 195 186 183 178 175
193 195 196 195 189 175 160 170 206 213 197 114 130 141 176 164 176 153 158 187 212 210 148 203 198 182 170 224 194 193 237 267 281 268 74 150 240 106 153 216 212 196 184 179 181
189 190 196 191 191 177 169 201 209 196 154 158 118 148 180 187 205 172 203 212 203 199 214 181 154 119 63 110 242 144 215 27 161 130 258 203 251 218 187 213 200 188 179 185 188
184 188 198 189 186 177 194 208 226 189 146 174 191 203 184 183 183 194 184 187 205 204 230 183 132 63 108 126 74 257 126 190 210 252 248 197 259 236 191 180 172 176 185 184 188
176 168 199 187 181 180 205 205 206 222 195 184 203 157 194 178 203 190 183 167 201 168 201 175 239 120 174 205 183 154 200 212 300 267 276 292 250 198 196 175 173 178 181 182 180
168 178 175 177 179 194 206 206 190 187 199 224 146 140 181 172 176 207 207 244 160 151 175 174 193 186 185 56 351 295 245 215 241 183 237 309 275 181 215 184 179 172 173 176 172
162 117 174 172 200 189 150 198 221 184 199 190 189 207 182 174 175 200 187 110 163 165 152 173 201 180 173 166 179 230 192 216 212 295 226 252 257 73 197 191 191 184 176 175 175
161 143 154 200 221 184 172 193 205 205 205 177 164 136 150 155 256 173 189 123 156 175 177 166 180 246 263 24 115 191 200 210 218 242 249 236 270 229 203 197 197 194 185 183 180
183 179 169 186 199 187 186 167 192 204 215 192 161 210 183 175 153 194 136 130 102 151 131 206 231 215 261 241 221 249 218 204 210 234 242 269 275 269 241 220 210 195 183 184 180
180 157 138 154 173 168 179 193 193 194 171 201 212 202 188 196 197 197 170 193 203 158 177 177 214 185 253 235 247 254 247 242 231 247 256 266 273 280 260 262 233 205 181 179 178
206 170 158 153 172 181 196 191 186 170 221 216 208 208 213 230 240 235 192 134 163 180 183 179 178 184 255 227 282 262 238 233 233 229 244 251 267 260 212 213 211 196 177 174 177
Wind_Speed_850mb
26 26 17 22 22 17 17 18 13 15 16 12 9 8 8 8 9 12 10 8 9 10 11 9 7 3 6 5 5 4 9 11 12 10 4 8 9 8 12 19 15 14 20 21 30
33 29 26 25 22 18 18 18 16 16 17 13 10 8 8 9 11 17 13 12 9 9 10 6 6 4 4 5 3 6 7 7 5 8 7 11 13 16 12 19 23 17 13 21 24
27 35 27 31 27 22 19 16 18 17 19 13 10 9 8 9 9 13 21 16 11 10 8 7 5 4 4 4 5 3 8 3 8 16 15 15 15 7 13 13 3 20 23 16 21
27 35 33 29 25 22 20 16 19 20 20 15 11 11 9 7 10 16 23 23 14 11 8 6 5 2 3 5 5 11 12 11 6 6 7 11 9 15 19 14 22 13 18 25 23
33 37 34 24 23 25 20 17 18 21 20 16 13 11 8 10 13 9 19 28 20 14 9 5 3 3 2 3 5 14 9 7 14 18 18 18 21 17 13 7 14 12 13 13 14
43 33 30 26 22 23 21 21 18 22 21 16 15 12 9 15 14 11 14 27 24 18 10 4 5 5 3 5 9 3 11 21 16 18 13 9 4 4 4 11 8 13 17 17 15
41 33 29 27 25 25 24 22 20 23 21 18 17 13 15 19 13 18 22 24 19 17 11 7 5 5 8 4 3 7 16 13 8 1 3 6 10 12 7 9 12 18 21 24 27
36 33 30 29 19 22 20 22 21 24 23 20 17 13 15 18 23 20 27 23 19 15 10 7 6 7 4 5 3 7 8 7 7 3 3 4 5 14 8 10 11 15 20 25 33
35 32 34 31 17 27 29 27 26 26 25 21 16 13 12 18 26 31 26 22 20 14 11 9 9 5 7 7 8 7 8 8 4 3 2 6 11 3 9 8 11 12 16 22 32
38 37 36 28 25 32 31 29 26 25 23 17 17 9 28 19 29 32 31 27 19 18 10 5 4 9 8 11 8 3 9 6 12 4 8 17 25 11 13 15 21 17 16 22 32
36 36 32 30 30 36 32 25 14 13 32 25 16 15 2 20 24 26 33 33 20 14 14 5 12 17 11 12 6 5 8 17 10 3 6 7 17 13 1 31 28 20 20 24 31
36 34 32 33 33 38 42 36 36 8 13 51 42 34 6 21 11 23 34 24 19 20 13 9 21 12 3 9 12 10 11 20 11 5 7 7 13 5 18 21 22 23 23 25 29
38 36 35 37 38 46 50 53 18 20 11 13 49 35 25 25 14 29 37 19 15 18 21 22 4 13 10 13 16 15 17 13 13 3 6 11 7 15 11 14 14 15 18 22 26
42 40 41 43 39 46 51 45 21 10 9 13 16 16 31 26 14 20 33 15 8 20 14 15 5 12 12 14 18 18 7 11 9 7 7 5 1 19 23 20 18 20 22 23 24
45 44 46 49 21 46 33 32 28 12 10 11 9 9 21 28 17 13 41 16 18 17 12 6 13 12 10 4 19 5 10 4 7 11 9 11 9 19 24 26 27 28 27 25 23
47 47 50 54 29 33 27 34 27 8 13 8 8 13 19 11 7 11 14 10 9 10 5 8 1 6 2 7 5 21 7 4 4 7 10 6 7 17 24 36 33 33 30 29 26
49 51 55 51 32 30 36 45 10 11 5 10 8 12 23 14 10 12 22 21 18 13 25 13 21 6 6 9 10 10 7 6 8 9 3 5 7 8 21 14 36 40 38 32 27
52 53 55 51 31 35 55 14 14 7 9 5 6 15 16 16 8 9 18 21 16 12 5 18 11 18 11 13 3 19 8 9 8 5 2 3 10 3 6 7 13 32 36 31 27
52 53 54 52 38 47 40 20 15 9 9 17 7 9 12 8 7 12 18 15 19 27 14 13 7 4 3 4 1 11 12 4 2 1 6 3 7 10 7 9 21 29 30 27 25
56 50 53 54 39 47 21 17 7 4 8 6 13 11 20 21 15 20 21 10 10 28 10 8 7 1 6 5 11 5 10 5 6 7 7 6 10 10 17 20 26 29 30 25 21
52 25 36 51 39 26 23 18 9 11 9 11 13 9 8 13 17 15 12 5 9 14 16 10 4 7 6 15 16 9 8 3 5 6 7 8 7 10 22 33 36 37 29 26 25
44 11 41 60 25 17 24 17 9 9 12 6 5 4 13 17 16 15 14 6 12 25 17 9 2 9 5 5 5 4 7 18 11 10 3 7 13 7 16 40 45 39 30 29 27
34 11 46 67 19 14 5 11 8 9 10 10 10 6 5 13 8 10 8 3 14 13 12 15 7 8 6 5 4 9 10 8 1 2 21 12 9 2 12 31 33 34 33 35 28
29 9 13 31 17 27 21 15 17 14 6 7 5 7 6 5 3 10 9 4 9 8 4 14 7 12 14 5 7 10 16 22 22 14 19 28 31 12 19 32 36 32 33 34 28
25 13 21 18 22 16 32 22 23 21 9 11 4 11 13 9 7 6 5 6 4 8 6 8 12 10 13 5 6 11 15 26 30 36 25 38 37 30 24 33 49 38 34 35 27
19 11 13 15 41 21 20 21 31 25 18 14 11 22 16 15 15 16 13 8 9 9 11 5 9 7 7 3 13 19 26 28 35 37 38 41 49 38 34 23 32 39 34 33 24
34 25 22 20 29 27 25 24 18 19 21 15 25 14 11 24 21 2 5 6 6 11 19 12 12 10 14 1 9 19 40 40 31 26 25 30 35 4 10 17 27 36 37 30 23
Wind_Direction_850mb
271 280 262 246 239 238 242 255 247 242 213 225 233 253 265 268 260 223 227 195 164 146 129 128 130 118 95 100 91 100 241 245 248 231 230 181 256 268 275 268 262 250 273 283 292
252 258 256 252 249 245 239 251 250 229 217 222 237 253 268 273 259 226 199 186 158 140 139 145 136 116 129 126 124 240 249 258 270 242 243 278 274 298 274 268 276 276 278 293 290
244 251 253 240 233 234 237 247 257 223 220 223 239 254 267 281 270 222 202 189 168 150 146 133 108 108 136 173 173 168 260 219 246 246 279 289 284 258 285 280 324 307 301 297 295
242 245 243 231 237 236 236 238 253 227 217 223 238 253 262 249 219 198 195 192 180 168 152 133 115 120 194 216 174 246 251 249 287 249 274 277 290 283 268 283 321 320 301 303 297
247 235 240 242 225 233 241 239 244 230 222 225 234 250 256 244 251 201 200 194 190 181 172 169 152 137 246 203 209 242 275 248 263 269 263 270 275 269 278 328 330 334 337 330 323
243 241 238 228 242 244 236 238 238 231 223 232 236 236 242 240 230 219 185 186 184 186 192 194 177 205 229 220 230 270 267 278 276 266 239 257 234 286 146 352 33 45 35 22 11
245 236 224 236 221 230 241 235 227 229 222 232 243 240 235 234 222 204 183 182 186 189 204 216 237 203 161 201 240 285 292 294 213 109 255 229 211 203 99 17 65 51 45 42 47
241 236 223 224 223 255 256 257 232 214 222 231 236 243 246 238 224 203 193 194 193 198 204 203 185 175 212 144 203 262 260 243 143 335 117 272 230 154 109 27 77 66 55 50 50
232 227 224 220 210 246 241 242 228 215 220 226 235 216 249 223 215 210 199 202 195 190 179 173 166 160 173 229 248 201 273 259 251 87 296 244 287 162 212 343 129 95 70 64 63
222 218 218 209 206 238 225 219 213 222 221 222 222 214 242 215 208 210 207 203 181 176 144 175 163 224 203 209 266 227 241 243 266 123 280 271 262 281 282 198 152 126 93 77 70
215 210 214 207 202 216 214 188 191 231 211 199 201 214 292 194 187 193 197 183 163 179 212 157 229 232 245 230 291 242 263 269 268 11 289 262 294 324 287 159 145 133 116 95 82
209 209 205 205 202 199 195 195 198 200 224 225 236 227 215 177 170 184 179 182 189 209 154 198 242 276 243 191 189 211 260 270 273 188 285 288 312 71 143 135 139 141 129 113 103
207 202 198 202 198 200 200 199 199 229 263 219 224 228 218 206 221 193 180 180 191 191 202 235 76 125 168 165 189 206 239 266 285 254 237 277 201 165 159 147 141 145 141 126 118
201 201 197 196 199 199 209 199 211 203 261 204 197 211 208 202 234 198 185 174 167 216 187 243 130 211 224 238 232 260 230 234 234 255 270 273 265 193 179 175 181 166 159 145 131
200 198 198 196 194 197 205 193 197 193 261 122 154 176 167 185 137 184 187 197 192 170 192 148 175 186 204 220 191 67 111 176 257 253 282 189 238 135 183 197 188 183 169 159 145
204 194 195 194 194 190 186 172 164 209 245 152 137 160 155 163 142 126 168 161 131 149 239 264 245 213 187 107 162 132 126 152 204 244 240 121 252 176 188 205 188 183 180 171 164
199 198 195 194 204 179 170 153 175 228 88 172 178 170 175 160 149 174 172 186 191 190 225 213 228 179 197 194 133 180 220 249 214 209 308 114 226 313 189 199 195 186 183 178 175
193 195 196 195 189 175 160 170 206 213 197 114 130 141 176 164 176 153 158 187 212 210 148 203 198 182 170 224 194 193 237 267 281 268 74 150 240 106 153 216 212 196 184 179 181
189 190 196 191 191 177 169 201 209 196 154 158 118 148 180 187 205 172 203 212 203 199 214 181 154 119 63 110 242 144 215 27 161 130 258 203 251 218 187 213 200 188 179 185 188
184 188 198 189 186 177 194 208 226 189 146 174 191 203 184 183 183 194 184 187 205 204 230 183 132 63 108 126 74 257 126 190 210 252 248 197 259 236 191 180 172 176 185 184 188
176 168 199 187 181 180 205 205 206 222 195 184 203 157 194 178 203 190 183 167 201 168 201 175 239 120 174 205 183 154 200 212 300 267 276 292 250 198 196 175 173 178 181 182 180
168 178 175 177 179 194 206 206 190 187 199 224 146 140 181 172 176 207 207 244 160 151 175 174 193 186 185 56 351 295 245 215 241 183 237 309 275 181 215 184 179 172 173 176 172
162 117 174 172 200 189 150 198 221 184 199 190 189 207 182 174 175 200 187 110 163 165 152 173 201 180 173 166 179 230 192 216 212 295 226 252 257 73 197 191 191 184 176 175 175
161 143 154 200 221 184 172 193 205 205 205 177 164 136 150 155 256 173 189 123 156 175 177 166 180 246 263 24 115 191 200 210 218 242 249 236 270 229 203 197 197 194 185 183 180
183 179 169 186 199 187 186 167 192 204 215 192 161 210 183 175 153 194 136 130 102 151 131 206 231 215 261 241 221 249 218 204 210 234 242 269 275 269 241 220 210 195 183 184 180
180 157 138 154 173 168 179 193 193 194 171 201 212 202 188 196 197 197 170 193 203 158 177 177 214 185 253 235 247 254 247 242 231 247 256 266 273 280 260 262 233 205 181 179 178
206 170 158 153 172 181 196 191 186 170 221 216 208 208 213 230 240 235 192 134 163 180 183 179 178 184 255 227 282 262 238 233 233 229 244 251 267 260 212 213 211 196 177 174 177